Find Starlink 2646

NORAD ID: 48642 Int'l Des: 2021-044 Owner: SPXS Country: US Constellation: starlink operational
LEOCIRCULAR

リアルタイム位置

3D地球を読み込み中...

Starlink 2646について

説明を読み込み中...

次回通過

Passes for default location (London). Set your location on the main map for personalized predictions.

高度履歴

Loading altitude history...

軌道要素

1 48642U 21044E 26126.19798443 .00001815 00000-0 70212-4 0 9998
2 48642 53.1584 206.5497 0001279 84.2579 275.8568 15.31712221272635
Epoch: May 6, 2026 • Age: 21 hours

現在のステータス

高度 475.8 km
速度 7.63 km/s
衛星直下点 -17.37°S, 141.17°E
打ち上げ日 May 26, 2021
運用期間 4.9 years
タイプ internet

技術仕様

分類 Payload
質量 260.00 kg
乾燥質量 248.00 kg
総質量 260.00 kg
長さ 0.20 m
直径 2.80 m
スパン 9.00 m
形状 Box + pan
製造者 SPXS
バスタイプ Starlink
フェーズステータス In Orbit
所有者/国 SPXS/US

Most Searched